Tracking 27086 objects as of 22-Mar-2023
HD Live streaming from Space Station
objects crossing your sky now

STARLINK-3882

Track STARLINK-3882 now!
10-day predictions
STARLINK-3882 is classified as:


NORAD ID: 52475
Int'l Code: 2022-049AA
Perigee: 546.1 km
Apogee: 547.6 km
Inclination: 53.2 °
Period: 95.4 minutes
Semi major axis: 6917 km
RCS: Unknown
Launch date: May 6, 2022
Source: United States (US)
Launch site: AIR FORCE EASTERN TEST RANGE (AFETR)
Your satellite tracking list
Your tracking list is empty




NASA's NSSDC Master Catalog

Two Line Element Set (TLE):
1 52475U 22049AA  23081.15134764  .00001854  00000-0  13453-3 0  9992
2 52475  53.2158 243.3152 0001095  90.5722 269.5395 15.08843457 48836
Source of the keplerian elements: AFSPC